EHI
19 34 63 76 58 47 64 76 67 49 34 25 17 8 3 5 16 39 56 57 64 82 95 93 70 37 14 7 4 2 1 0 1 2 1 0 0 0 0 0 0 0 0
47 61 80 86 68 48 54 73 76 68 57 46 32 17 10 15 32 57 70 67 68 79 92 93 77 48 25 14 9 7 3 1 2 4 2 0 0 0 0 0 0 0 0
85 90 96 97 84 67 63 74 80 78 69 55 41 30 31 44 58 73 83 81 75 75 85 93 85 64 39 23 16 13 9 5 4 6 4 1 0 0 0 0 0 0 0
100 100 100 99 96 89 82 79 79 78 70 55 42 40 53 66 66 67 75 81 78 75 82 92 91 77 53 31 20 19 17 11 6 5 4 1 0 0 0 0 0 0 0
100 100 100 100 98 94 87 82 83 87 82 67 48 43 54 59 49 41 46 55 59 61 68 82 92 86 68 50 38 34 30 22 13 7 4 3 2 0 0 0 0 0 0
98 98 97 96 93 87 81 82 88 95 96 86 62 47 45 37 24 17 19 23 25 28 36 56 77 83 75 68 64 57 45 33 25 16 8 7 7 4 1 0 0 0 0
95 93 89 84 79 74 73 80 90 97 99 93 78 60 41 23 10 7 12 17 11 5 10 25 47 65 71 71 66 57 44 37 35 28 16 12 12 7 2 0 0 0 0
90 84 76 69 66 65 68 77 87 91 92 88 76 58 36 19 11 10 16 24 18 7 3 7 19 37 56 64 51 33 25 26 29 30 25 15 9 6 3 1 0 0 0
84 76 64 58 57 61 66 74 77 75 71 64 49 33 21 15 15 13 13 19 20 12 4 2 5 14 31 48 42 20 9 10 12 17 22 17 8 4 3 2 1 0 0
77 66 54 47 46 50 58 59 54 48 41 31 20 11 7 8 8 7 5 8 10 9 5 3 3 4 12 24 26 15 4 2 1 4 10 14 10 5 3 3 2 1 0
62 52 41 35 33 34 36 32 25 20 16 9 4 3 3 2 1 0 0 1 2 3 3 4 3 2 3 7 8 5 2 0 0 1 3 5 6 5 4 4 3 2 1
43 34 24 21 20 17 14 10 6 4 3 2 0 0 0 0 0 0 0 0 0 0 1 1 1 0 0 1 1 0 0 0 0 0 0 0 1 2 3 3 3 2 2
27 19 10 8 8 6 4 2 1 0 0 0 0 0 0 0 0 0 0 0 0 0 0 0 0 0 0 0 0 0 0 0 0 0 0 0 0 0 1 1 1 1 1
14 8 3 1 1 1 1 0 0 0 0 0 0 0 0 0 0 0 0 0 0 0 0 0 0 0 0 0 0 0 0 0 0 0 0 0 0 0 0 0 0 0 0
4 2 0 0 0 0 0 0 0 0 0 0 0 0 0 0 0 0 0 0 0 0 0 0 0 0 0 0 0 0 0 0 0 0 0 0 0 0 0 0 0 0 0
0 0 0 0 0 0 0 0 0 0 0 0 0 0 0 0 0 0 0 0 0 0 0 0 0 0 0 0 0 0 0 0 0 0 0 0 0 0 0 0 0 0 0
0 0 0 0 0 0 0 0 0 0 0 0 0 0 0 0 0 0 0 0 0 0 0 0 0 0 0 0 0 0 0 0 0 0 0 0 0 0 0 0 0 0 0
0 0 0 0 0 0 0 0 0 0 0 0 0 0 0 0 0 0 0 0 0 0 0 0 0 0 0 0 0 0 0 0 0 0 0 0 0 0 0 0 0 0 0
0 0 0 0 0 0 0 0 0 0 0 0 0 0 0 0 0 0 0 0 0 0 0 0 0 0 0 0 0 0 0 0 0 0 0 0 0 0 0 0 0 0 0
0 0 0 0 0 0 0 0 0 0 0 0 0 0 0 0 0 0 0 0 0 0 0 0 0 0 0 0 0 0 0 0 0 0 0 0 0 0 0 0 0 0 0
0 0 0 0 0 0 0 0 0 0 0 0 0 0 0 0 0 0 0 0 0 0 0 0 0 0 0 0 0 0 0 0 0 0 0 0 0 0 0 0 0 0 0
0 0 0 0 0 0 0 0 0 0 0 0 0 0 0 0 0 0 0 0 0 0 0 0 0 0 0 0 0 0 0 0 0 0 0 0 0 0 0 0 0 0 0
0 0 0 0 0 0 0 0 0 0 0 0 0 0 0 0 0 0 0 0 0 0 0 0 0 0 0 0 0 0 0 0 0 0 0 0 0 0 0 0 0 0 0
0 0 0 0 0 0 0 0 0 0 0 0 0 0 0 0 0 0 0 0 0 0 0 0 0 0 0 0 0 0 0 0 0 0 0 0 0 0 0 0 0 0 0
0 0 0 0 0 0 0 0 0 0 0 0 0 0 0 0 0 0 0 0 0 0 0 0 0 0 0 0 0 0 0 0 0 0 0 0 0 0 0 0 0 0 0
0 0 0 0 0 0 0 0 0 0 0 0 0 0 0 0 0 0 0 0 0 0 0 0 0 0 0 0 0 0 0 0 0 0 0 0 0 0 0 0 0 0 0
Wind_Speed
7 7 4 4 4 4 5 6 6 4 5 5 4 5 5 6 6 7 3 12 14 15 15 15 16 17 17 17 17 18 18 16 15 14 14 15 15 15 15 15 15 14 13
8 6 5 5 5 5 4 5 6 6 6 5 5 6 7 8 6 6 5 6 12 14 16 17 17 18 18 18 18 18 18 17 15 14 14 15 14 14 15 15 14 14 14
9 6 5 4 5 5 4 3 4 4 4 4 6 8 7 6 5 5 5 4 5 13 18 19 19 19 19 19 19 18 17 17 15 15 15 15 15 15 15 14 14 14 14
8 6 6 6 5 4 2 2 2 3 4 4 5 6 5 3 5 5 6 6 7 8 13 20 20 21 21 21 21 19 18 17 16 15 15 16 15 15 14 14 14 13 13
9 8 6 6 5 4 4 5 4 4 5 5 5 5 4 4 5 7 7 8 8 8 7 13 23 23 23 23 23 21 19 18 16 16 16 16 16 15 15 15 14 14 14
8 7 6 7 6 6 6 6 6 5 5 4 6 7 5 5 6 7 9 8 8 10 10 8 10 15 22 22 22 21 20 19 17 17 18 18 18 17 17 16 16 15 14
6 4 5 5 5 6 6 7 6 7 6 4 3 5 8 9 9 7 7 7 8 9 8 7 5 7 9 21 22 21 21 20 19 19 19 19 19 19 19 18 17 16 15
6 7 6 6 5 5 7 7 7 5 5 5 4 4 5 5 6 8 7 7 7 5 6 6 5 6 5 6 12 19 19 20 20 20 20 19 18 18 19 19 18 17 17
9 8 7 6 6 6 7 7 7 9 6 5 5 5 5 3 2 3 2 1 2 2 3 4 4 4 5 3 6 13 19 19 21 21 19 19 18 18 17 18 19 18 18
8 8 8 7 6 6 6 6 6 4 5 4 3 5 5 2 0 3 3 3 4 4 5 4 4 5 5 3 5 9 13 16 19 20 19 18 18 18 18 19 20 20 19
6 7 7 6 6 5 4 4 2 2 1 2 3 4 3 2 2 2 3 3 3 3 3 3 3 3 5 3 3 3 9 14 17 17 15 14 14 15 17 19 20 20 20
5 7 7 6 6 5 6 5 4 4 3 4 4 3 3 1 1 2 2 2 3 3 3 2 2 2 2 4 5 10 6 7 10 9 9 8 8 8 9 12 16 18 19
5 7 8 7 6 7 7 6 6 6 6 5 3 3 3 2 1 1 2 2 3 3 3 2 2 1 1 2 3 7 7 4 5 6 7 7 6 5 6 8 11 13 15
3 4 6 6 7 7 6 6 5 5 4 4 3 3 2 2 2 2 2 1 2 3 2 2 1 3 2 2 3 2 4 2 2 4 4 4 5 6 7 9 10 11 13
3 3 2 3 4 5 5 4 3 4 4 4 3 3 2 2 1 0 1 1 1 2 3 1 3 3 3 3 1 2 1 3 5 5 6 6 6 7 8 9 11 12 13
2 3 3 2 1 2 2 2 3 3 4 4 3 3 2 1 1 0 0 1 0 1 2 3 4 5 5 6 5 4 3 5 7 7 7 7 6 6 7 9 10 12 14
3 3 3 2 1 1 1 1 2 4 4 4 4 3 3 4 2 3 2 2 1 1 2 3 2 2 4 4 5 5 5 3 4 8 9 8 6 6 6 7 9 11 13
4 3 2 1 1 1 1 1 1 4 4 4 5 5 5 5 5 5 4 3 2 1 1 2 2 2 3 3 4 4 4 4 2 6 9 8 6 6 6 6 8 10 12
3 3 3 2 1 1 2 3 4 5 6 6 6 6 7 7 6 5 4 4 3 2 1 1 2 2 2 3 3 4 5 5 6 3 5 5 4 5 5 5 6 9 11
3 2 1 1 1 3 4 5 5 6 7 8 8 8 8 7 5 5 5 5 5 4 3 3 3 4 4 6 5 5 5 5 5 7 5 4 4 4 4 5 5 7 10
1 1 1 1 2 4 5 5 6 8 7 8 7 7 8 7 7 6 6 5 6 6 5 5 5 4 4 6 7 6 5 3 2 4 4 4 4 4 5 5 5 7 9
2 0 1 3 6 7 11 10 6 6 6 6 6 5 7 8 5 6 7 7 7 6 5 5 5 5 6 5 5 6 5 4 3 3 2 3 3 4 4 4 7 6 7
3 2 4 7 7 7 11 10 8 6 7 8 8 8 8 9 9 7 1 0 4 8 8 5 5 4 4 5 6 7 6 3 2 3 2 2 2 3 3 5 9 8 7
4 3 5 7 5 5 8 11 9 7 6 7 7 8 8 7 10 9 7 7 6 6 4 3 2 4 4 5 5 5 5 2 0 2 3 3 2 1 2 3 8 9 8
4 4 6 6 5 3 5 9 10 4 6 9 9 9 8 6 11 12 8 7 7 7 7 7 7 8 8 7 5 4 6 6 4 2 5 3 3 3 1 1 3 6 8
5 5 6 6 6 4 4 6 6 1 5 7 7 7 10 7 9 10 6 6 6 7 9 10 6 3 1 4 6 5 5 5 5 4 7 5 4 4 3 1 1 2 3
Wind_Direction
227 233 221 214 230 224 192 206 224 231 251 258 258 266 268 250 225 237 208 201 208 212 217 221 224 229 233 235 234 237 241 241 234 227 224 224 225 226 227 228 227 228 225
222 222 215 208 220 241 236 210 207 210 218 227 240 247 248 248 229 216 226 221 219 221 223 226 228 230 232 234 234 234 235 236 229 218 218 223 223 219 223 226 227 226 224
216 211 216 218 220 234 245 255 247 237 234 234 234 238 236 235 250 244 236 242 240 228 224 225 227 231 233 234 236 234 232 232 225 215 214 219 220 217 218 221 223 224 220
219 214 222 223 218 223 229 237 251 269 268 262 254 240 229 215 236 246 239 229 234 245 227 221 223 228 231 234 237 235 231 229 224 217 215 217 220 220 216 218 219 219 217
218 212 223 225 218 223 225 233 228 226 244 254 261 253 233 216 227 245 245 246 246 241 240 216 218 223 226 232 235 234 232 228 223 218 216 216 218 220 218 218 217 216 216
224 218 224 218 217 227 224 217 221 223 230 237 262 274 274 246 226 227 235 241 247 250 247 234 213 223 225 227 229 230 230 228 223 220 219 218 216 215 216 217 216 215 215
266 246 254 248 229 237 241 232 223 222 223 209 229 262 260 248 239 228 223 227 236 245 242 238 213 208 219 225 226 226 227 227 223 220 221 221 217 214 214 216 215 215 216
258 252 247 251 248 248 251 246 239 234 225 204 203 235 255 246 243 237 216 213 224 238 247 246 240 230 226 210 219 225 228 228 227 223 221 221 220 217 216 217 217 216 217
235 232 240 244 248 246 246 241 236 235 233 232 219 227 244 245 348 334 333 226 226 275 269 258 264 275 273 219 198 219 228 230 232 230 224 221 221 219 217 217 219 219 219
233 229 232 235 244 247 247 249 242 239 240 250 269 255 258 290 339 332 333 342 8 347 328 324 315 309 284 229 222 228 233 236 238 234 230 227 222 220 218 220 222 222 220
224 223 222 224 223 227 230 226 227 223 223 249 265 273 268 257 198 224 279 311 323 301 293 300 285 298 308 292 244 275 248 237 236 234 232 235 235 227 222 223 227 227 224
213 210 215 218 218 220 219 212 208 213 210 229 250 267 276 274 224 220 257 284 290 291 290 272 274 281 310 338 4 23 349 259 240 237 229 229 235 232 225 226 231 233 232
215 210 215 224 227 227 221 210 208 212 213 221 242 270 281 270 249 209 229 261 285 292 280 259 235 231 21 42 30 7 344 314 242 222 211 209 218 231 239 242 243 245 245
207 196 213 229 234 230 222 213 215 211 204 208 221 243 258 269 237 216 220 282 317 313 322 321 45 68 32 39 70 344 347 345 209 207 216 230 247 260 266 267 265 263 259
150 146 195 224 231 230 226 218 209 198 189 193 202 208 217 237 231 30 17 34 2 332 329 2 26 31 24 23 86 322 354 169 191 212 230 245 259 273 280 279 276 271 264
114 132 119 119 157 207 200 185 187 190 179 171 166 157 168 159 97 58 12 6 18 304 306 348 18 13 14 2 13 329 298 188 209 227 237 245 260 280 289 287 280 276 269
34 52 70 85 118 210 191 186 174 158 147 140 141 129 100 73 47 18 22 36 24 14 320 335 15 3 24 8 345 329 308 245 209 222 236 240 249 272 290 293 294 293 286
6 352 347 329 273 222 188 199 134 116 115 99 83 77 67 64 51 40 12 15 11 33 338 336 337 7 22 355 344 338 335 338 316 227 227 234 244 269 287 300 311 310 304
298 292 281 282 298 73 87 83 83 82 80 78 74 66 56 49 37 18 9 22 11 12 343 343 32 41 22 356 345 350 4 1 347 328 229 230 261 282 291 302 313 316 312
279 278 269 323 47 84 95 92 85 79 78 75 67 60 52 48 36 4 32 26 12 359 10 27 52 44 20 357 360 353 10 13 15 2 10 47 30 9 332 303 301 314 316
235 357 24 58 86 84 73 73 92 91 93 90 83 77 71 67 62 49 54 33 28 25 20 18 39 34 17 7 3 347 351 342 35 27 21 29 29 27 14 349 332 337 330
122 30 8 56 61 65 43 38 85 96 97 99 104 110 98 56 50 60 66 54 48 43 22 15 29 18 15 5 351 338 333 341 3 6 14 23 20 17 7 1 353 359 354
153 147 84 78 73 53 39 37 64 96 81 70 62 56 60 40 22 360 353 116 72 53 41 45 33 0 354 351 343 338 344 8 12 336 336 20 23 7 345 2 6 11 21
151 127 105 98 93 69 41 35 30 98 90 84 78 79 66 40 20 6 17 23 28 14 352 16 347 323 334 338 332 328 342 0 307 15 359 0 3 352 334 1 14 21 30
146 145 128 123 116 93 45 38 21 97 91 74 64 65 69 50 22 20 22 19 10 352 340 320 286 279 300 318 317 344 359 3 355 33 18 359 342 315 315 359 10 30 40
162 160 148 145 144 140 96 60 25 15 123 117 106 86 70 63 38 24 23 21 3 332 321 314 305 275 325 39 20 20 11 4 359 6 9 353 355 344 331 333 0 0 23